Wind_Speed
24 24 24 24 25 26 28 29 30 31 31 32 33 34 35 37 39 40 41 43 44 45 46 47 47 47 46 46 45 45 46 46 45 45 45 44 44 43 43 43 42 41 40 39
23 23 23 23 23 25 28 29 30 30 31 32 33 34 34 35 37 38 40 43 43 44 45 47 47 47 47 47 46 46 46 46 46 45 45 44 44 44 43 43 43 42 41 41
23 21 21 22 22 23 25 27 28 30 31 31 32 33 34 34 36 37 39 43 44 43 44 46 47 46 46 46 46 46 46 46 45 45 45 45 45 45 44 44 44 42 41 40
22 20 20 21 21 22 23 24 25 28 29 30 31 32 33 34 35 36 38 40 43 44 44 45 47 46 46 46 46 46 47 46 46 45 45 46 45 45 45 44 44 43 42 42
21 21 20 20 20 20 20 21 23 24 26 28 29 32 32 33 34 36 38 38 41 43 43 44 46 45 45 46 46 46 47 47 47 47 47 46 46 46 46 45 45 44 44 44
21 19 19 19 18 19 18 19 19 21 22 26 27 29 31 32 33 35 37 38 40 42 42 43 45 45 45 46 47 47 47 48 48 48 48 48 46 46 46 46 46 45 45 44
19 19 18 17 16 16 16 17 17 19 21 24 23 26 27 28 30 33 35 37 39 41 42 43 45 45 46 46 47 48 48 48 49 49 49 49 47 47 47 47 47 47 46 46
20 19 18 16 15 14 14 16 17 18 19 22 22 24 24 24 26 28 32 35 37 39 40 42 44 45 46 47 48 48 48 48 49 49 50 50 49 49 49 48 48 48 47 47
20 19 17 16 15 16 15 14 16 18 19 20 22 22 22 22 23 24 28 32 33 37 39 41 42 43 45 46 48 49 48 48 49 50 50 51 51 50 49 49 49 49 48 47
20 19 17 16 16 17 16 15 16 17 18 19 21 21 21 21 22 23 26 30 32 34 36 38 40 42 44 45 47 48 48 49 49 49 50 51 51 50 50 49 49 49 49 48
20 18 17 17 17 16 15 16 18 18 19 20 21 21 20 21 21 22 23 26 29 32 34 36 38 41 43 45 46 47 48 48 49 49 50 50 51 50 50 49 49 49 49 49
20 18 17 16 17 17 17 17 18 19 20 21 21 21 21 22 23 23 24 25 28 32 34 35 37 39 41 42 44 45 45 46 47 50 51 50 50 51 51 50 49 49 50 50
21 19 18 16 16 17 18 18 19 20 21 22 22 21 21 22 23 24 25 26 29 32 34 35 36 38 40 41 42 43 44 45 46 48 49 50 51 51 50 50 49 50 50 51
22 20 19 18 18 18 17 18 19 21 21 22 23 22 23 23 24 24 24 25 27 29 34 36 36 38 39 40 41 42 43 44 45 46 47 48 49 49 50 50 50 50 50 50
22 21 19 19 19 19 18 17 18 19 20 22 22 23 23 24 25 26 26 26 27 28 30 34 36 37 37 38 40 41 42 43 43 44 46 47 47 48 49 50 50 50 50 50
22 21 20 20 20 20 19 18 18 19 19 20 21 21 22 24 25 26 27 28 29 30 30 31 34 36 37 38 39 40 41 42 43 44 44 45 46 46 48 49 49 50 50 50
22 22 21 20 20 20 20 19 20 20 19 20 20 20 21 22 24 25 26 27 28 30 30 31 32 35 37 38 39 39 40 40 42 43 44 45 45 45 46 47 48 49 50 50
23 23 23 22 21 20 19 19 20 21 21 22 22 22 22 22 23 24 26 28 28 28 30 30 31 32 34 36 37 39 39 39 39 40 41 43 44 45 46 46 47 48 49 50
23 23 23 24 24 23 20 20 20 20 21 22 22 23 23 23 23 23 25 26 26 27 27 28 29 31 32 34 35 36 37 38 39 39 40 41 43 43 43 44 45 46 48 49
24 24 24 25 25 24 23 22 21 21 21 21 22 23 22 23 23 22 23 24 25 26 26 26 27 28 30 32 34 35 36 38 38 39 40 40 41 42 43 43 44 45 46 47
25 25 25 25 25 24 24 23 23 23 23 23 23 23 22 23 23 23 23 24 24 25 25 26 26 26 28 30 31 33 35 36 37 38 39 40 40 41 41 42 42 43 44 45
26 26 26 26 26 25 24 23 23 23 23 23 24 23 23 23 23 24 24 24 24 24 25 26 26 27 27 28 30 31 32 34 35 36 38 38 39 39 40 40 41 41 42 43
27 27 27 27 26 25 24 24 23 23 23 23 23 23 23 23 23 24 24 24 24 24 25 26 26 27 27 27 28 29 31 32 34 34 35 36 36 36 37 37 38 39 40 41
27 27 27 27 25 24 24 23 23 23 23 23 23 22 22 22 22 22 23 23 24 24 24 25 25 26 26 27 26 27 28 29 30 32 33 34 34 35 35 36 37 37 38 39
28 28 27 26 25 23 22 22 22 22 22 22 22 22 22 22 22 22 22 22 23 24 24 24 25 25 25 26 26 26 26 27 27 28 30 31 32 33 34 35 36 36 36 36
27 27 27 26 24 23 21 21 22 22 22 22 22 22 22 22 21 22 22 22 23 24 24 25 25 25 24 25 25 25 25 25 25 26 27 28 29 30 31 32 32 33 33 33
Wind_Direction
296 290 287 283 276 270 266 263 257 254 255 256 254 252 248 245 243 241 237 234 233 233 234 233 233 233 234 234 234 233 234 235 236 236 237 237 239 240 241 242 243 244 244 243
300 294 291 286 278 272 267 264 258 256 256 257 255 252 249 245 242 241 238 233 231 231 233 232 232 232 233 233 233 233 233 234 235 237 237 237 239 240 241 242 243 244 244 245
304 301 295 288 280 274 269 264 260 258 255 255 255 253 249 245 241 240 238 234 231 231 232 231 231 231 232 233 233 233 234 234 235 235 236 237 239 240 241 242 243 244 243 243
306 303 298 292 285 280 276 267 263 259 256 254 254 253 249 246 242 240 239 235 232 231 232 232 232 232 232 233 233 233 234 234 235 236 236 237 239 241 242 243 242 243 243 243
309 303 298 295 292 286 282 271 267 264 259 259 256 255 253 248 243 241 238 236 232 232 232 232 231 232 232 233 233 233 234 235 236 236 238 239 240 240 241 242 243 244 244 244
312 309 304 300 296 291 286 279 274 269 264 262 258 257 257 253 247 242 239 237 234 232 232 232 231 232 232 233 233 233 235 236 237 237 238 238 239 240 240 241 242 243 244 245
314 313 309 304 296 293 290 283 278 273 267 263 260 260 260 256 251 245 241 238 237 235 235 233 231 232 233 233 234 235 236 237 238 238 239 239 239 239 241 241 242 244 244 245
315 315 311 305 299 299 295 288 278 271 269 266 265 265 262 259 254 249 244 241 238 237 236 235 233 234 234 235 235 236 237 238 238 239 239 239 241 242 242 242 243 244 245 245
315 313 308 303 299 300 295 287 280 274 272 269 266 266 264 259 257 252 247 243 240 239 238 235 234 236 235 236 236 237 239 239 240 241 242 242 241 242 243 243 243 244 244 245
313 312 307 302 299 297 292 291 285 280 274 271 270 268 265 257 255 255 251 247 244 241 238 236 238 238 236 236 238 239 239 240 241 241 242 242 241 242 243 243 243 244 245 245
318 311 307 301 297 293 290 291 287 280 276 273 273 272 266 262 260 259 254 249 246 243 238 237 240 240 239 239 239 240 241 242 242 242 242 242 243 243 243 244 244 245 245 246
321 313 309 304 299 293 291 292 289 281 277 272 273 276 272 265 262 259 256 250 248 245 242 242 242 241 241 241 241 242 243 243 243 243 244 245 245 244 243 244 245 245 246 246
326 317 311 305 301 295 292 289 287 285 280 273 273 274 275 270 267 262 257 254 252 248 246 244 244 243 244 244 243 244 244 244 244 244 244 245 245 245 244 244 245 246 246 247
325 318 311 309 307 302 300 293 286 284 281 278 276 275 273 269 268 265 262 260 256 253 249 247 245 245 245 245 245 246 246 246 245 245 245 246 246 246 244 244 244 246 247 248
324 320 314 310 310 306 304 298 292 289 285 280 279 277 272 270 269 266 264 263 261 258 253 248 246 246 246 245 245 246 246 246 246 246 246 246 246 245 245 245 246 247 248 248
323 321 316 313 311 308 306 299 295 294 290 287 283 280 274 272 271 268 265 264 262 260 257 253 250 248 248 247 247 246 246 246 246 246 247 246 246 246 246 246 246 247 247 248
322 321 318 315 311 307 306 303 297 294 295 291 289 285 279 275 272 271 268 265 265 262 259 256 255 253 250 249 248 247 247 246 247 248 247 247 247 248 248 248 248 248 247 248
321 319 317 315 312 309 309 305 300 297 296 294 292 290 284 279 276 273 270 268 267 265 263 261 259 256 254 252 250 249 249 249 249 249 248 248 248 249 250 251 250 249 248 248
319 317 317 317 314 312 309 305 304 301 298 295 294 293 289 285 280 277 273 270 269 266 266 262 260 260 257 255 253 252 251 251 251 251 250 250 250 250 251 251 251 250 250 249
319 316 316 315 312 311 307 302 301 301 298 295 294 293 290 287 284 281 276 273 271 269 267 265 262 261 260 258 256 255 253 252 252 251 251 252 253 252 252 252 252 252 251 250
319 317 315 314 312 311 308 303 299 298 297 295 293 292 291 289 287 283 278 274 272 269 268 266 264 263 261 260 259 257 255 255 254 253 252 252 252 251 252 252 252 252 252 251
320 318 315 314 313 311 310 306 300 298 298 296 294 292 291 290 288 286 281 277 274 270 269 268 267 265 263 262 261 259 257 256 255 253 251 251 251 251 251 252 252 252 252 251
319 318 314 312 311 309 307 306 303 300 299 298 298 295 293 292 291 288 284 280 277 274 273 271 270 268 266 265 263 262 260 258 255 254 252 250 250 250 251 251 251 252 253 252
318 317 315 313 310 308 306 305 304 302 300 299 299 298 296 293 291 290 287 283 279 277 277 276 273 271 269 267 265 263 260 258 255 253 251 250 250 251 251 252 252 253 253 253
318 316 315 314 312 309 307 304 304 305 302 299 298 298 297 295 293 290 287 284 281 279 278 277 276 274 270 268 265 263 261 258 255 252 250 250 251 251 252 252 253 253 253 252
316 315 315 314 313 311 309 305 304 305 304 301 299 299 297 296 294 291 289 287 284 281 279 278 276 273 269 266 264 262 261 259 256 253 252 252 253 253 253 253 252 252 251 251
Height
5648 5646 5644 5643 5642 5642 5642 5642 5643 5644 5645 5646 5647 5649 5652 5655 5659 5663 5668 5672 5677 5682 5687 5692 5697 5703 5709 5714 5719 5724 5728 5732 5736 5740 5744 5748 5752 5755 5758 5762 5765 5769 5772 5775
5642 5639 5637 5635 5633 5632 5632 5633 5633 5635 5636 5637 5638 5640 5642 5645 5648 5653 5657 5662 5666 5672 5676 5681 5687 5693 5698 5704 5709 5713 5718 5722 5726 5730 5735 5739 5742 5746 5749 5752 5756 5759 5762 5765
5636 5634 5630 5628 5626 5625 5624 5625 5625 5626 5627 5628 5629 5631 5633 5636 5639 5642 5646 5651 5656 5661 5666 5671 5677 5682 5688 5693 5698 5703 5707 5712 5716 5720 5724 5728 5732 5736 5739 5743 5746 5749 5753 5756
5630 5627 5624 5622 5621 5619 5618 5618 5618 5618 5619 5619 5621 5621 5624 5627 5630 5633 5636 5640 5645 5651 5656 5661 5666 5672 5678 5683 5688 5693 5697 5702 5706 5710 5714 5718 5722 5726 5729 5733 5736 5739 5743 5746
5625 5622 5619 5617 5615 5613 5612 5611 5611 5611 5611 5612 5612 5612 5616 5618 5621 5624 5627 5631 5635 5641 5646 5651 5657 5662 5668 5673 5678 5683 5687 5691 5695 5700 5703 5707 5712 5715 5719 5722 5726 5730 5733 5736
5620 5617 5614 5612 5610 5608 5607 5606 5605 5605 5605 5604 5605 5605 5607 5609 5612 5615 5618 5622 5626 5631 5636 5641 5647 5652 5658 5662 5667 5672 5677 5681 5685 5689 5693 5697 5701 5705 5708 5712 5716 5719 5723 5726
5616 5613 5610 5607 5606 5604 5603 5602 5600 5599 5598 5597 5599 5598 5600 5602 5604 5607 5610 5613 5617 5621 5626 5631 5637 5642 5647 5652 5656 5661 5666 5670 5674 5678 5681 5686 5690 5694 5698 5701 5705 5709 5713 5716
5612 5609 5606 5602 5601 5599 5598 5597 5595 5594 5593 5593 5593 5592 5595 5595 5597 5599 5601 5604 5608 5611 5616 5621 5626 5632 5636 5641 5646 5650 5655 5659 5663 5667 5670 5675 5679 5683 5687 5690 5694 5698 5702 5705
5607 5605 5602 5599 5597 5595 5593 5591 5591 5590 5588 5587 5587 5587 5588 5589 5590 5592 5594 5596 5599 5602 5606 5611 5616 5621 5625 5630 5635 5639 5643 5647 5651 5655 5659 5662 5667 5671 5675 5679 5683 5686 5690 5693
5602 5600 5598 5596 5593 5591 5589 5587 5586 5584 5583 5581 5581 5581 5582 5583 5584 5585 5587 5589 5591 5594 5598 5603 5607 5610 5615 5619 5624 5628 5632 5636 5639 5643 5647 5650 5655 5659 5662 5666 5670 5674 5678 5681
5599 5596 5594 5592 5589 5586 5585 5584 5581 5579 5578 5577 5576 5579 5577 5578 5579 5580 5581 5582 5585 5587 5591 5594 5597 5601 5604 5608 5612 5616 5620 5623 5627 5631 5634 5638 5642 5646 5649 5654 5658 5661 5665 5669
5595 5592 5590 5588 5585 5582 5581 5579 5577 5576 5574 5572 5572 5575 5572 5573 5574 5574 5575 5576 5578 5580 5582 5585 5588 5591 5594 5598 5601 5605 5608 5611 5615 5619 5622 5625 5629 5633 5637 5641 5645 5648 5652 5656
5591 5589 5586 5584 5583 5580 5577 5575 5572 5571 5570 5568 5567 5570 5567 5568 5568 5568 5569 5570 5571 5572 5574 5576 5579 5581 5584 5587 5590 5593 5596 5599 5603 5606 5610 5613 5617 5620 5624 5628 5632 5635 5639 5643
5588 5585 5582 5580 5576 5574 5572 5570 5567 5566 5564 5563 5563 5563 5563 5562 5562 5562 5563 5563 5563 5564 5566 5568 5569 5572 5574 5576 5579 5582 5585 5588 5591 5594 5597 5601 5604 5607 5611 5615 5618 5622 5626 5630
5584 5581 5578 5575 5573 5570 5568 5566 5563 5561 5559 5558 5557 5556 5556 5556 5555 5556 5556 5556 5556 5556 5557 5558 5560 5562 5564 5566 5568 5571 5573 5576 5579 5582 5585 5588 5591 5595 5598 5602 5605 5609 5613 5616
5581 5578 5574 5572 5569 5566 5564 5562 5559 5557 5554 5552 5551 5551 5550 5549 5548 5548 5548 5548 5548 5548 5549 5549 5550 5552 5554 5555 5558 5560 5562 5565 5567 5570 5573 5576 5579 5582 5585 5589 5592 5596 5599 5602
5577 5574 5570 5568 5565 5561 5560 5557 5554 5552 5549 5548 5546 5545 5543 5542 5542 5541 5540 5540 5540 5540 5540 5540 5541 5542 5544 5545 5547 5549 5551 5553 5556 5558 5561 5564 5567 5570 5573 5575 5578 5582 5585 5589
5573 5569 5565 5563 5560 5557 5557 5552 5549 5547 5545 5542 5540 5538 5537 5536 5534 5533 5532 5531 5531 5531 5531 5531 5532 5532 5533 5534 5536 5538 5540 5542 5544 5546 5549 5552 5554 5557 5560 5562 5565 5568 5571 5575
5568 5564 5561 5557 5554 5551 5551 5547 5544 5541 5540 5537 5534 5532 5530 5529 5527 5526 5525 5524 5523 5522 5522 5522 5522 5523 5523 5524 5526 5527 5529 5530 5532 5535 5537 5539 5542 5545 5547 5550 5552 5555 5558 5561
5564 5560 5557 5552 5548 5546 5545 5541 5538 5536 5534 5531 5528 5526 5524 5522 5521 5520 5517 5516 5515 5514 5514 5513 5513 5514 5514 5515 5516 5517 5518 5520 5522 5523 5525 5527 5530 5532 5535 5537 5540 5542 5544 5547
5559 5555 5551 5547 5542 5540 5538 5534 5532 5531 5529 5525 5522 5520 5518 5515 5514 5512 5510 5509 5507 5506 5506 5505 5505 5505 5505 5505 5506 5507 5508 5509 5510 5512 5514 5516 5518 5520 5523 5525 5527 5530 5532 5535
5553 5549 5545 5540 5537 5536 5531 5528 5526 5524 5520 5518 5515 5513 5511 5509 5506 5504 5503 5501 5500 5499 5498 5498 5497 5497 5496 5496 5496 5497 5498 5498 5499 5500 5502 5505 5506 5509 5511 5513 5515 5518 5520 5522
5547 5544 5538 5535 5534 5529 5524 5521 5519 5516 5514 5511 5508 5506 5504 5502 5499 5497 5496 5494 5493 5492 5491 5490 5489 5488 5488 5488 5487 5488 5488 5488 5489 5490 5492 5493 5496 5498 5500 5502 5504 5507 5508 5511
5542 5537 5533 5528 5526 5522 5518 5515 5513 5510 5507 5504 5502 5499 5497 5495 5493 5491 5489 5487 5486 5484 5483 5482 5481 5480 5480 5479 5479 5479 5479 5479 5479 5481 5482 5484 5486 5488 5490 5492 5494 5496 5498 5499
5535 5530 5526 5522 5519 5516 5513 5509 5506 5503 5500 5498 5495 5493 5490 5488 5486 5484 5482 5480 5479 5477 5476 5474 5473 5472 5471 5471 5470 5470 5470 5471 5471 5472 5474 5475 5477 5479 5480 5482 5484 5485 5487 5488
5529 5524 5520 5517 5513 5510 5507 5504 5501 5498 5495 5492 5489 5487 5484 5482 5480 5477 5475 5473 5471 5470 5468 5467 5465 5464 5464 5463 5463 5463 5463 5463 5464 5465 5466 5467 5469 5470 5471 5473 5474 5475 5477 5479